User: anonymous   Login
Location: Obersdorf
(47.4079°N, 10.2781°E)
Time: 12:01:16
(UTC+01:00)
Language:

DIWATA 2B (PO-101) - Orbit

View from above orbital plane
View from above orbital plane
View from above satellite
View from above satellite

Ground track
Ground track

The orbit data is extracted from the following two-line orbital elements,

1 43678U 18084H   21335.20140138  .00000658  00000-0  70886-4 0  9994
2 43678  97.9448 101.5671 0008975 214.0399 146.0237 14.91845668168290
Epoch (UTC): 01 December 2021 04:50:01
Eccentricity: 0.0008975
inclination: 97.9448°
perigee height: 586 km
apogee height: 598 km
right ascension of ascending node: 101.5671°
argument of perigee: 214.0399°
revolutions per day: 14.91845668
mean anomaly at epoch: 146.0237°
orbit number at epoch: 16829

The dashed part of the orbit path shows where the satellite is in the earth's shadow,  

DLR